C/2004 H6 (SWAN)                                                      

Epoch 2004 Apr. 25.0 TT = JDT 2453120.5  

T 2004 May 12.68633 TT                                  Nakano

q   0.7762444            (2000.0)            P               Q

z  -0.0007482      Peri.  269.04504     +0.19371070     +0.73759379

 +/-0.0000227      Node   317.24497     +0.59372657     -0.61303655

e   1.0005808      Incl.  107.66274     -0.78100251     -0.28309291

From 266 observations 2004 May 21-Aug. 31, mean residual 0".69.

   (1/a)org.= -0.000242, (1/a)fut.= -0.000217 (+/-0.000023), Q= 6.

Residuals in seconds of arc (or two decimals in units of degrees)

2004/                     040724 130  0.1+  0.6-    040810 233 (1.1+  3.7-) 

040429 249(0.41- 0.62-)Y  040724 A54 (6.5+  5.0+)   040810 233 (2.3-  5.2-) 

040502 249(0.31- 0.79-)Y  040724 A54 (0.1-  3.9+)   040811 170  0.3+  0.1-  

040505 249(0.68- 0.42-)Y  040725 A02  0.8+  0.2-    040811 170  0.1-  0.2-  

040508 249(0.27- 0.61-)Y  040725 A02  0.4-  0.0     040811 170  0.0   0.0   

040510 249(0.48- 0.83-)Y  040725 A02  1.4+  1.5-    040811 170  0.3+  0.1+  

040514 249(0.62- 1.17-)Y  040727 322  0.7-  0.6-    040812 372  1.5+  0.2-  

040516 D82 (0.9-  5.0-)   040727 322  0.5-  0.4-    040812 A30  0.2-  0.3-  

040519 249(0.79- 0.50-)Y  040727 322  1.6-  0.4-    040812 A30  0.1-  0.7-  

040521 249(0.43- 0.27-)Y  040727 372  0.3-  1.3+    040812 J93  0.3-  0.2+  

040521 247  0.8-  0.0     040727 372  1.1-  1.1+    040812 A30  0.4+  0.8-  

040521 247  0.5-  0.5+    040727 322  0.9-  0.2-    040812 J93  0.7+  0.6-  

040521 247 (3.0-  0.6+)   040727 322  1.5-  0.8-    040812 A30  0.2-  0.2-  

040521 247 (4.5+  0.3+)   040727 D74  0.4+  0.3+    040812 A30  0.4-  0.6-  

040525 D87  0.0   1.1-    040727 D74  0.5+  0.8+    040812 J93  0.3+  0.4+  

040525 D87  1.7-  0.7+    040728 A32  0.0   0.4-    040812 J93  0.6+  0.0   

040525 D87  0.8+  0.9+    040728 A32  0.5+  0.5+    040813 349  0.8+  0.9-  

040525 D87  0.7+  1.2+    040728 A32  0.2-  0.4-    040813 349  1.4+  1.1-  

040527 E13 (0.5-  2.4-)   040728 A32  0.0   0.3-    040813 349  1.1+  0.9-  

040527 E13 (1.1-  2.5-)   040728 372  1.1-  0.0     040813 204  0.5-  0.1+  

040527 E13 (1.8-  2.6-)   040728 372  1.5-  0.1+    040813 213  0.1-  1.1+  

040607 D87  0.1+  1.4-    040729 A32  0.7-  0.3+    040813 213  0.6+  0.8+  

040607 D87  0.8+  1.3-    040729 A32  1.0-  0.0     040813 213  0.0   0.3+  

040607 D87  0.3+  0.6-    040729 A32  0.5-  0.1-    040813 939  0.3-  0.0   

040607 D87  0.6-  1.6-    040729 A32  0.4-  0.4-    040813 939  0.7-  0.4+  

040607 D87  0.4-  1.1-    040731 170  0.0   1.9-    040813 939  1.0-  0.5+  

040615 I05  0.0   0.3-    040731 170  0.4-  0.9-    040813 442  0.5-  0.6+  

040615 I05  0.0   0.1-    040804 246  0.8+  0.1+    040813 442  0.2-  0.7-  

040615 I05  0.0   0.4-    040804 246  0.2+  0.4+    040814 A30  0.5+  0.1+  

040615 I05  0.3-  0.5-    040804 246  0.7+  0.2+    040814 A30  0.2+  0.4-  

040615 I05  0.3-  0.1+    040804 246  0.1-  0.3+    040814 A30  0.4+  0.3-  

040621 D86 (3.2-  3.5-)   040804 246  0.3+  0.3+    040814 A30  0.0   0.4-  

040621 D86  1.2+  1.7-    040805 A30  0.4-  0.3+    040814 204  0.5-  0.3+  

040623 I05  0.2-  0.4+    040805 A30  0.4-  0.2-    040814 A32  0.1+  0.2-  

040623 I05  0.2-  0.0     040805 A30  0.4-  0.6+    040814 204  0.0   0.5+  

040624 I05  0.5-  0.4-    040805 A30  0.6-  0.9+    040814 A10  0.6-  0.6+  

040624 I05  0.2+  0.2+    040805 246  0.2-  0.3+    040814 939  0.2-  0.3-  

040624 I05  0.0   0.2-    040805 246  0.1+  0.2+    040814 A10  0.7+  0.6-  

040626 D86  0.1+  0.3-    040805 246  0.3-  0.4+    040814 939  0.2+  0.6-  

040626 D86 (2.1+  0.7-)   040805 246  0.1+  0.1+    040814 939  0.6+  0.9-  

040626 D86 (3.2-  3.6-)   040805 046  0.6-  0.5-    040815 235  1.4-  0.9+  

040630 360  0.1+  0.1+    040805 046  1.1-  0.1+    040815 J78 (1.1+  2.4-) 

040630 360  0.1+  0.2+    040805 046  0.7-  0.1+    040815 J78  0.8+  0.2+  

040630 360  0.1-  0.3+    040805 046  0.4-  0.3+    040815 J78  0.4+  0.8-  

040701 349  0.3-  0.0     040805 046  0.5-  0.5-    040815 213  0.0   0.2+  

040701 349  0.2-  0.0     040805 046  0.5-  0.3-    040815 213  0.3+  0.5+  

040701 349  0.1-  0.0     040806 J93  1.2+  0.7+    040815 213  0.5+  0.7+  

040702 349  0.3-  0.7-    040806 J93  0.2+  0.1+    040816 A46  0.5-  0.3+  

040702 349  0.3-  0.8-    040806 J93 (1.9+  2.6+)   040816 A46  1.2-  0.6+  

040702 349  0.2-  0.8-    040806 J93 (1.2-  3.5+)   040816 A46  1.0-  1.4-  

040706 349  0.1+  0.0     040806 213  1.9-  1.1+    040816 A46  1.6-  0.8-  

040706 349  0.1-  0.5+    040806 213 (3.3-  0.8+)   040816 A46  0.3-  0.0   

040706 349  0.4-  0.4-    040807 A54  0.6+  0.3-    040816 A46  0.2-  0.1-  

040710 213  0.8+  0.2-    040807 D86 (0.5+  3.3-)   040816 360  0.2-  0.1-  

040710 213 (2.9+  0.1+)   040807 D86 (2.0+  4.5-)   040816 360  0.1+  0.1+  

040710 213  0.3+  0.2-    040807 D86 (6.2-  1.6-)   040816 939  1.2-  1.1-  

040714 D74  1.7+  1.0+    040807 213  0.9-  0.5+    040816 939  0.0   0.8-  

040714 D74  1.2+  0.4+    040807 213  0.4+  0.7+    040816 939  1.1+  0.5-  

040715 372  0.8-  0.6+    040807 160  0.7+  0.3+    040816 057  1.4-  0.3-  

040715 372  0.0   0.5+    040807 160  0.8-  1.0+    040816 057  0.9-  0.5-  

040716 704 (2.0+  8.4-)   040807 160  1.2+  0.0     040816 057  1.9-  0.9+  

040716 704 (5.3-  2.4-)   040807 160  0.8-  0.5+    040816 057  1.8-  0.8+  

040716 704 (2.5-  3.0-)   040807 J93  0.3+  0.9-    040816 057 (3.3-  0.3-) 

040716 704 (3.2-  1.3-)   040807 J93  1.1+  1.4-    040816 057  1.5-  0.6+  

040716 704 (2.6-  0.4-)   040807 160  0.5-  0.6-    040816 106  0.4+  0.3-  

040716 D74  1.3+  0.1+    040807 J93  0.3+  0.6-    040816 106  1.3+  0.9-  

040716 D74  1.7+  0.4+    040807 J93  1.3+  1.0-    040817 106  0.8+  0.4-  

040717 215  0.1-  0.1+    040807 J93  0.5+  0.1-    040817 213  1.4+  0.2-  

040717 215  0.5+  0.4-    040808 A02  0.2+  1.6-    040817 213  0.0   0.2+  

040717 215  0.7+  0.3-    040808 A02  1.3-  0.3+    040817 213  0.8+  0.2+  

040717 A18  1.6-  0.3-    040808 A02 (2.9-  0.4+)   040817 A10 (2.7+  1.2-) 

040718 048  0.0   1.9+    040808 442 (2.3+  1.2+)   040817 A10  1.8+  0.8-  

040718 048  0.3+  1.8+    040808 046  0.2-  0.7+    040817 A10 (2.6+  0.6-) 

040718 048  0.4-  1.5+    040808 046  0.4-  0.0     040818 A02 (3.4+  0.8-) 

040718 048  0.9-  1.2+    040808 046  0.4-  0.3+    040818 A02  1.9-  0.2+  

040718 048  0.5-  0.9+    040808 046  0.1+  0.4-    040818 A02 (3.1+  0.6-) 

040719 349  0.8+  0.3-    040808 620  0.2+  0.2+    040818 A02 (4.0+  2.0+) 

040719 349  0.7+  0.4-    040808 620  0.1+  0.1-    040818 A02 (2.6+  0.5+) 

040719 349  0.0   0.2+    040808 620  0.0   0.2+    040819 J93  0.2+  0.9-  

040719 349  0.1-  0.3+    040808 A32  0.3+  0.4+    040819 J93  1.5+  0.9-  

040720 372  0.6-  0.2+    040808 A32  0.3+  0.1+    040819 J93  1.5-  0.6+  

040720 379  0.6+  0.1-    040808 A32  0.2-  0.3+    040819 A30  0.1-  0.7+  

040720 379  0.7+  0.3+    040808 A32  0.0   0.1+    040819 A30  0.1-  0.2+  

040720 379  0.4-  0.0     040809 A33  0.3-  0.1-    040819 J78  0.7+  0.2-  

040721 379 (1.1-  2.4-)   040809 A33  0.1-  0.1-    040819 A32  0.6+  1.0-  

040721 379  1.2-  1.5-    040809 D74  0.9+  0.4+    040819 A32  1.2+  0.8-  

040721 048  0.2-  0.1+    040809 D74  0.2-  0.7+    040819 A32  0.2-  0.3+  

040722 048  0.1+  0.1-    040809 D74  1.1+  0.4+    040819 A18  1.4+  1.0-  

040722 048  0.4-  0.1+    040809 170  0.2+  0.3+    040820 704 (2.2+  1.0-) 

040722 048  0.4+  0.1-    040809 170  1.5-  0.7+    040820 704 (2.7+  0.9-) 

040722 048  0.4+  0.5-    040809 A32  0.8+  0.1+    040820 704  0.0   0.7-  

040723 A32  0.3-  0.8+    040809 A32  0.3+  0.4-    040820 704 (3.4+  0.0 ) 

040723 A32  0.1+  0.8+    040809 A32  0.4+  0.4+    040820 704  0.4-  0.2+  

040723 A32  0.2+  1.1+    040809 A32  0.0   0.0     040821 A02 (2.7+  0.0 ) 

040723 A32  1.1-  0.1+    040810 046  0.3+  0.5+    040821 A02 (3.2+  0.7-) 

040723 A32 (2.1+  0.0 )   040810 046  0.0   0.7+    040821 A02 (3.5+  0.2-) 

040723 379  0.5+  0.4-    040810 046  0.2+  0.2+    040822 104  0.4+  0.5-  

040723 379  1.5+  1.1+    040810 046  0.3+  0.3+    040822 104  0.2+  0.8-  

040724 939  0.5+  0.3+    040810 046  0.2+  0.1-    040822 104  0.3-  0.5-  

040724 213  1.9+  0.4+    040810 046  0.3-  0.6+    040822 A32  0.3+  0.2-  

040724 213  1.4+  1.2-    040810 A33  0.1+  0.4+    040823 I05  0.2+  0.8+  

040724 213  1.8-  0.4+    040810 A33  0.2+  0.3+    040823 I05  0.3-  0.3+  

040724 939  1.2+  0.5+    040810 A30  0.6+  0.7-    040828 204  0.0   1.4-  

040724 461  0.0   0.7+    040810 A30  0.8-  0.3-    040831 415  0.4-  0.4+  

040724 461  1.5+  0.1-    040810 A30  0.8-  1.1+    040831 415  1.6+  0.6+  

040724 130  0.4+  0.5-    040810 A30 (2.3-  1.3+)   040831 415  0.1+  0.3-  

040724 130  0.7+  0.1+    040810 233 (5.2+  5.9-)                           



NAKANO

         **** Don't distribute anyone except personal use only ****

                (C) Copyright 2005 OAA/ComputingSection

write mail from CFAD0::NAKANO on 2005-02-04 04:54:38(JST).

 

    C/2004 H6 (SWAN)                                                      

Epoch 2004 Apr. 25.0 TT = JDT 2453120.5  

T 2004 May 12.68630 TT                                  Nakano

q   0.7762439            (2000.0)            P               Q

z  -0.0007466      Peri.  269.04498     +0.19370973     +0.73759394

 +/-0.0000226      Node   317.24496     +0.59372702     -0.61303597

e   1.0005796      Incl.  107.66272     -0.78100241     -0.28309375

From 254 observations 2004 May 21-Aug. 22, mean residual 0".69.

   (1/a)org.= -0.000241, (1/a)fut.= -0.000216 (+/-0.000023), Q= 6.



NAKANO

         **** Don't distribute anyone except personal use only ****

                (C) Copyright 2004 OAA/ComputingSection

write mail from CFAD0::NAKANO on 2004-09-05 02:52:38(JST).

 



